Wind_Speed
30 30 30 30 29 27 27 26 26 25 24 24 25 26 25 25 25 24 24 24 24 23 23 23 22 22 20 19 19 19 20 20 20
33 32 32 34 33 33 31 31 31 30 29 29 29 30 30 29 29 29 30 29 28 27 27 26 25 24 23 22 21 21 20 20 19
33 34 33 30 33 36 34 36 35 35 34 34 34 33 34 34 34 34 34 33 33 32 31 29 28 27 26 25 24 22 22 21 21
36 35 35 36 39 34 34 40 38 39 38 38 36 36 37 38 38 37 36 36 37 36 35 34 33 30 29 27 26 25 24 23 23
37 37 38 40 40 38 36 38 37 41 39 40 38 37 37 40 40 40 39 39 40 41 39 38 35 33 31 30 27 27 26 25 24
43 42 42 42 41 41 40 40 39 40 40 42 42 39 33 40 44 44 43 42 43 43 41 39 37 35 34 33 30 28 28 27 26
52 51 50 50 49 47 45 44 43 42 41 42 42 44 47 45 37 32 43 46 42 41 40 40 38 37 36 35 32 30 29 29 28
57 56 56 57 56 55 54 52 50 49 47 45 45 43 43 45 46 46 36 31 33 42 46 42 38 38 36 36 33 31 30 30 30
65 63 62 62 61 60 60 59 58 56 55 54 52 50 48 45 39 39 43 43 37 34 30 42 38 39 38 36 36 32 31 30 30
72 72 71 68 66 68 66 64 61 61 60 60 57 56 54 52 49 45 48 36 38 40 38 32 34 34 34 31 30 31 31 30 31
76 76 75 76 74 71 71 70 67 65 65 65 63 60 59 57 54 50 49 43 46 42 33 32 34 33 36 33 29 30 31 32 33
84 83 80 79 82 83 79 76 74 72 70 68 68 66 64 62 59 55 51 51 48 47 34 38 36 36 39 36 31 31 32 35 36
88 90 89 87 85 84 84 83 82 79 76 74 72 70 67 68 68 61 57 51 50 49 46 44 42 38 40 39 35 36 38 39 42
91 94 95 95 94 93 93 92 89 87 85 81 79 78 75 72 69 68 64 62 55 53 48 47 48 44 43 44 42 38 40 35 34
99 99 100 99 100 99 97 99 100 98 95 91 88 85 82 78 74 72 68 66 63 59 56 50 51 51 47 47 44 42 40 36 37
97 98 99 102 104 105 102 101 101 99 98 97 96 92 88 85 83 79 75 72 69 66 61 58 52 55 56 52 46 45 41 38 42
90 90 92 95 99 102 104 108 108 107 106 104 102 98 95 94 88 85 82 78 75 71 68 63 59 60 60 59 53 49 45 46 39
57 60 64 69 75 84 91 96 104 109 107 110 109 105 100 97 96 93 89 86 83 77 74 69 65 62 63 64 61 48 40 47 35
48 48 50 52 54 56 63 72 80 90 102 103 109 110 110 106 100 98 95 93 89 87 79 75 72 67 67 67 70 61 61 57 52
42 43 44 45 48 49 51 52 54 59 71 75 81 96 109 110 107 103 99 98 95 89 85 80 77 74 71 73 75 66 63 56 49
Wind_Direction
259 258 258 257 256 252 250 250 247 244 246 246 247 248 249 249 248 248 247 247 247 250 253 254 260 265 267 271 272 271 268 268 268
258 257 258 256 255 253 252 252 252 250 249 249 248 250 252 252 252 251 250 250 252 253 256 259 264 266 268 269 271 274 271 267 267
262 262 257 250 253 253 253 251 251 251 250 249 249 249 250 250 251 250 250 251 251 253 255 258 260 262 264 267 268 270 274 270 267
261 260 260 261 264 255 253 250 250 250 250 250 249 249 250 250 250 249 250 250 252 252 252 254 257 260 260 261 264 266 267 268 269
261 261 260 259 258 258 258 260 251 250 249 249 250 250 252 252 251 250 249 251 252 252 251 253 256 258 259 260 259 261 263 263 262
257 258 259 258 258 258 258 260 259 257 253 250 247 242 248 244 249 249 248 248 249 252 253 255 257 257 258 260 259 259 261 260 258
255 253 254 256 257 256 255 256 257 257 257 259 257 250 251 262 267 259 254 251 250 253 253 254 255 256 258 261 260 260 260 258 257
258 257 254 252 253 253 255 255 254 254 255 255 258 259 260 259 263 272 267 257 257 251 250 253 257 260 260 263 262 262 260 259 259
256 258 259 256 251 251 252 251 250 251 251 253 256 256 257 258 252 259 267 262 258 254 262 255 253 258 260 261 264 260 260 260 259
257 256 256 256 256 252 249 249 251 252 251 250 250 251 253 255 256 257 258 272 266 266 261 265 254 253 259 261 259 254 254 255 257
259 258 257 256 253 252 252 248 248 249 250 252 251 250 249 250 252 253 257 256 260 264 260 263 263 257 256 254 250 253 255 257 260
262 258 257 256 256 254 251 250 250 250 249 249 249 251 251 250 248 251 251 254 259 255 248 264 259 256 254 248 248 250 260 261 259
259 260 258 256 258 258 257 254 251 250 251 252 250 249 250 249 249 249 250 247 252 252 258 256 258 254 251 247 252 255 260 259 257
260 261 261 260 257 257 257 257 257 253 252 251 251 253 250 250 249 249 251 249 245 249 248 255 252 256 252 251 258 259 262 253 245
266 262 261 261 260 259 258 258 257 257 256 253 252 253 251 251 249 248 248 247 249 247 247 251 251 251 252 253 256 255 248 248 248
271 268 266 265 262 258 257 257 257 255 254 255 254 253 252 250 249 248 248 247 246 248 248 248 246 247 251 253 258 246 249 255 254
272 271 270 269 269 267 266 263 260 258 257 256 253 250 250 250 249 247 247 247 246 245 247 247 247 244 248 251 250 242 244 248 244
273 271 269 268 267 266 266 265 264 262 260 258 254 250 248 248 247 246 246 246 246 245 244 246 247 245 244 248 247 247 254 252 263
269 267 266 264 261 259 258 258 259 260 260 259 258 255 251 248 245 246 245 246 246 246 243 242 243 244 244 243 246 241 250 252 254
266 265 263 263 263 264 265 263 260 258 256 254 253 254 253 252 250 245 246 244 243 243 244 243 239 242 242 241 243 242 240 244 244
Height
5836 5837 5837 5836 5837 5837 5838 5839 5840 5841 5842 5843 5844 5845 5846 5846 5847 5848 5849 5851 5852 5852 5853 5854 5854 5855 5856 5856 5857 5858 5857 5858 5859
5831 5830 5829 5828 5828 5830 5831 5831 5832 5834 5835 5836 5837 5838 5839 5840 5841 5842 5844 5845 5845 5847 5848 5848 5848 5849 5850 5850 5851 5851 5851 5852 5853
5822 5821 5819 5819 5819 5820 5822 5823 5823 5825 5827 5829 5830 5830 5831 5833 5835 5836 5837 5838 5839 5840 5840 5841 5842 5843 5843 5844 5844 5845 5845 5846 5847
5813 5812 5812 5811 5809 5811 5813 5814 5814 5816 5818 5820 5822 5823 5823 5824 5826 5828 5829 5830 5831 5832 5834 5834 5836 5836 5837 5838 5839 5839 5840 5840 5841
5804 5803 5803 5803 5802 5801 5802 5803 5804 5807 5808 5809 5811 5814 5815 5816 5817 5819 5820 5821 5823 5825 5826 5828 5829 5829 5830 5832 5833 5833 5834 5835 5836
5793 5793 5793 5793 5793 5793 5793 5794 5794 5797 5799 5800 5802 5803 5800 5804 5806 5807 5809 5812 5815 5817 5819 5820 5822 5823 5824 5825 5826 5826 5828 5829 5830
5779 5780 5781 5781 5782 5782 5783 5783 5785 5786 5788 5789 5792 5793 5793 5792 5794 5798 5802 5805 5807 5808 5810 5813 5815 5817 5817 5818 5819 5820 5821 5822 5823
5765 5765 5766 5767 5768 5769 5770 5772 5773 5775 5776 5778 5780 5783 5785 5785 5787 5789 5792 5795 5796 5798 5801 5804 5806 5808 5810 5811 5812 5813 5814 5815 5816
5749 5749 5750 5751 5751 5753 5755 5756 5758 5760 5763 5765 5767 5770 5774 5776 5780 5781 5781 5784 5788 5791 5793 5795 5796 5800 5802 5803 5804 5805 5807 5808 5809
5729 5729 5731 5733 5734 5736 5738 5740 5743 5745 5748 5750 5753 5756 5760 5764 5769 5772 5771 5770 5775 5781 5784 5787 5788 5790 5793 5795 5796 5798 5800 5801 5803
5706 5707 5708 5710 5713 5717 5721 5723 5725 5728 5731 5735 5738 5741 5744 5748 5754 5759 5762 5765 5768 5772 5775 5778 5781 5781 5785 5787 5788 5791 5793 5794 5796
5682 5684 5686 5688 5691 5694 5698 5702 5707 5710 5713 5718 5721 5726 5730 5734 5738 5744 5750 5754 5759 5762 5755 5768 5771 5773 5776 5778 5780 5782 5784 5786 5788
5653 5655 5659 5663 5667 5671 5675 5679 5684 5689 5694 5699 5704 5708 5713 5718 5723 5728 5734 5740 5745 5751 5754 5758 5762 5763 5767 5770 5772 5773 5775 5777 5779
5626 5628 5631 5633 5639 5643 5647 5653 5658 5664 5670 5676 5683 5689 5695 5701 5706 5714 5719 5724 5731 5737 5743 5747 5750 5754 5757 5761 5763 5766 5767 5768 5769
5594 5600 5603 5604 5609 5613 5616 5623 5630 5638 5644 5651 5660 5668 5675 5681 5688 5695 5702 5709 5715 5722 5728 5734 5738 5743 5748 5750 5754 5757 5758 5759 5760
5564 5568 5570 5572 5576 5581 5586 5591 5598 5608 5614 5622 5632 5644 5653 5660 5667 5675 5682 5690 5699 5706 5713 5720 5726 5731 5735 5740 5745 5747 5746 5751 5751
5533 5536 5540 5541 5544 5550 5555 5559 5566 5576 5583 5591 5602 5616 5626 5633 5646 5652 5662 5670 5677 5688 5697 5704 5712 5718 5722 5729 5734 5739 5738 5735 5735
5510 5511 5512 5516 5518 5524 5528 5530 5534 5545 5553 5559 5569 5585 5596 5604 5618 5629 5637 5646 5655 5667 5678 5689 5697 5704 5709 5716 5721 5726 5717 5716 5722
5494 5494 5494 5497 5498 5499 5502 5505 5507 5510 5522 5527 5537 5547 5561 5574 5594 5601 5613 5621 5633 5645 5656 5668 5679 5687 5694 5703 5707 5714 5718 5719 5723
5481 5480 5481 5482 5482 5483 5485 5485 5484 5485 5491 5499 5503 5512 5525 5540 5556 5575 5583 5592 5607 5621 5635 5648 5659 5668 5677 5686 5693 5700 5704 5710 5716